Year,Month,Day,Hour,Minute,Value (Times are PST for windspeed in km/hr)
2012,01,24,00,00,3.80
2012,01,24,00,01,3.60
2012,01,24,00,02,1.50
2012,01,24,00,03,2.20
2012,01,24,00,04,2.20
2012,01,24,00,05,3.00
2012,01,24,00,06,0.20
2012,01,24,00,07,1.50
2012,01,24,00,08,0.10
2012,01,24,00,09,0.00
2012,01,24,00,10,0.70
2012,01,24,00,11,1.60
2012,01,24,00,12,0.00
2012,01,24,00,13,2.60
2012,01,24,00,14,3.20
2012,01,24,00,15,0.30
2012,01,24,00,16,0.60
2012,01,24,00,17,0.50
2012,01,24,00,18,2.70
2012,01,24,00,19,2.40
2012,01,24,00,20,0.50
2012,01,24,00,21,0.10
2012,01,24,00,22,2.80
2012,01,24,00,23,1.10
2012,01,24,00,24,0.80
2012,01,24,00,25,0.70
2012,01,24,00,26,0.00
2012,01,24,00,27,0.10
2012,01,24,00,28,1.90
2012,01,24,00,29,1.00
2012,01,24,00,30,1.30
2012,01,24,00,31,1.40
2012,01,24,00,32,2.90
2012,01,24,00,33,3.10
2012,01,24,00,34,2.60
2012,01,24,00,35,0.00
2012,01,24,00,36,2.50
2012,01,24,00,37,0.00
2012,01,24,00,38,0.00
2012,01,24,00,39,0.00
2012,01,24,00,40,2.60
2012,01,24,00,41,1.40
2012,01,24,00,42,0.20
2012,01,24,00,43,1.00
2012,01,24,00,44,0.00
2012,01,24,00,45,0.00
2012,01,24,00,46,0.00
2012,01,24,00,47,0.00
2012,01,24,00,48,0.00
2012,01,24,00,49,0.00
2012,01,24,00,50,0.00
2012,01,24,00,51,0.00
2012,01,24,00,52,0.00
2012,01,24,00,53,0.00
2012,01,24,00,54,0.00
2012,01,24,00,55,0.00
2012,01,24,00,56,0.00
2012,01,24,00,57,0.00
2012,01,24,00,58,0.00
2012,01,24,00,59,0.00
2012,01,24,01,00,0.00
2012,01,24,01,01,0.00
2012,01,24,01,02,0.00
2012,01,24,01,03,0.00
2012,01,24,01,04,0.00
2012,01,24,01,05,0.00
2012,01,24,01,06,0.00
2012,01,24,01,07,0.00
2012,01,24,01,08,0.00
2012,01,24,01,09,0.00
2012,01,24,01,10,0.00
2012,01,24,01,11,0.00
2012,01,24,01,12,0.00
2012,01,24,01,13,0.00
2012,01,24,01,14,1.00
2012,01,24,01,15,4.60
2012,01,24,01,16,4.30
2012,01,24,01,17,0.80
2012,01,24,01,18,2.60
2012,01,24,01,19,3.20
2012,01,24,01,20,4.10
2012,01,24,01,21,4.70
2012,01,24,01,22,4.10
2012,01,24,01,23,3.60
2012,01,24,01,24,4.20
2012,01,24,01,25,4.30
2012,01,24,01,26,3.30
2012,01,24,01,27,4.60
2012,01,24,01,28,2.30
2012,01,24,01,29,3.90
2012,01,24,01,30,3.00
2012,01,24,01,31,2.70
2012,01,24,01,32,0.00
2012,01,24,01,33,0.30
2012,01,24,01,34,1.70
2012,01,24,01,35,2.90
2012,01,24,01,36,1.20
2012,01,24,01,37,1.00
2012,01,24,01,38,0.00
2012,01,24,01,39,0.00
2012,01,24,01,40,0.00
2012,01,24,01,41,0.00
2012,01,24,01,42,0.00
2012,01,24,01,43,1.30
2012,01,24,01,44,0.00
2012,01,24,01,45,0.00
2012,01,24,01,46,0.10
2012,01,24,01,47,3.70
2012,01,24,01,48,7.00
2012,01,24,01,49,18.30
2012,01,24,01,50,15.00
2012,01,24,01,51,6.80
2012,01,24,01,52,5.30
2012,01,24,01,53,4.70
2012,01,24,01,54,12.60
2012,01,24,01,55,13.30
2012,01,24,01,56,11.60
2012,01,24,01,57,6.70
2012,01,24,01,58,1.20
2012,01,24,01,59,0.00
2012,01,24,02,00,6.60
2012,01,24,02,01,8.40
2012,01,24,02,02,5.10
2012,01,24,02,03,5.20
2012,01,24,02,04,6.30
2012,01,24,02,05,1.40
2012,01,24,02,06,1.60
2012,01,24,02,07,5.60
2012,01,24,02,08,2.70
2012,01,24,02,09,0.00
2012,01,24,02,10,0.00
2012,01,24,02,11,0.00
2012,01,24,02,12,0.00
2012,01,24,02,13,0.20
2012,01,24,02,14,3.40
2012,01,24,02,15,2.90
2012,01,24,02,16,0.10
2012,01,24,02,17,0.00
2012,01,24,02,18,0.00
2012,01,24,02,19,0.00
2012,01,24,02,20,0.00
2012,01,24,02,21,0.00
2012,01,24,02,22,0.60
2012,01,24,02,23,0.20
2012,01,24,02,24,0.00
2012,01,24,02,25,1.80
2012,01,24,02,26,1.10
2012,01,24,02,27,0.00
2012,01,24,02,28,0.00
2012,01,24,02,29,0.00
2012,01,24,02,30,1.00
2012,01,24,02,31,1.10
2012,01,24,02,32,2.90
2012,01,24,02,33,3.50
2012,01,24,02,34,5.40
2012,01,24,02,35,2.40
2012,01,24,02,36,3.30
2012,01,24,02,37,5.90
2012,01,24,02,38,7.40
2012,01,24,02,39,4.30
2012,01,24,02,40,1.10
2012,01,24,02,41,0.60
2012,01,24,02,42,1.40
2012,01,24,02,43,0.10
2012,01,24,02,44,3.90
2012,01,24,02,45,4.40
2012,01,24,02,46,3.60
2012,01,24,02,47,4.40
2012,01,24,02,48,0.60
2012,01,24,02,49,0.00
2012,01,24,02,50,0.10
2012,01,24,02,51,5.20
2012,01,24,02,52,10.00
2012,01,24,02,53,9.70
2012,01,24,02,54,6.90
2012,01,24,02,55,3.50
2012,01,24,02,56,0.00
2012,01,24,02,57,0.00
2012,01,24,02,58,1.40
2012,01,24,02,59,0.00
2012,01,24,03,00,0.10
2012,01,24,03,01,0.60
2012,01,24,03,02,0.70
2012,01,24,03,03,0.00
2012,01,24,03,04,0.00
2012,01,24,03,05,0.00
2012,01,24,03,06,0.00
2012,01,24,03,07,0.00
2012,01,24,03,08,0.00
2012,01,24,03,09,0.00
2012,01,24,03,10,0.00
2012,01,24,03,11,0.00
2012,01,24,03,12,0.00
2012,01,24,03,13,0.00
2012,01,24,03,14,0.00
2012,01,24,03,15,0.00
2012,01,24,03,16,0.00
2012,01,24,03,17,0.00
2012,01,24,03,18,0.00
2012,01,24,03,19,0.00
2012,01,24,03,20,0.00
2012,01,24,03,21,0.00
2012,01,24,03,22,0.00
2012,01,24,03,23,0.00
2012,01,24,03,24,0.00
2012,01,24,03,25,0.00
2012,01,24,03,26,0.00
2012,01,24,03,27,0.00
2012,01,24,03,28,1.00
2012,01,24,03,29,4.60
2012,01,24,03,30,4.80
2012,01,24,03,31,4.60
2012,01,24,03,32,5.10
2012,01,24,03,33,4.70
2012,01,24,03,34,2.60
2012,01,24,03,35,4.10
2012,01,24,03,36,5.00
2012,01,24,03,37,4.10
2012,01,24,03,38,2.80
2012,01,24,03,39,4.30
2012,01,24,03,40,6.80
2012,01,24,03,41,4.30
2012,01,24,03,42,3.20
2012,01,24,03,43,4.60
2012,01,24,03,44,3.90
2012,01,24,03,45,1.50
2012,01,24,03,46,1.70
2012,01,24,03,47,4.30
2012,01,24,03,48,3.00
2012,01,24,03,49,4.50
2012,01,24,03,50,5.80
2012,01,24,03,51,5.00
2012,01,24,03,52,3.50
2012,01,24,03,53,4.30
2012,01,24,03,54,4.30
2012,01,24,03,55,0.80
2012,01,24,03,56,0.50
2012,01,24,03,57,0.10
2012,01,24,03,58,2.20
2012,01,24,03,59,2.20
2012,01,24,04,00,1.70
2012,01,24,04,01,2.50
2012,01,24,04,02,1.50
2012,01,24,04,03,0.00
2012,01,24,04,04,0.00
2012,01,24,04,05,0.00
2012,01,24,04,06,0.00
2012,01,24,04,07,0.00
2012,01,24,04,08,0.00
2012,01,24,04,09,0.00
2012,01,24,04,10,2.40
2012,01,24,04,11,2.40
2012,01,24,04,12,1.60
2012,01,24,04,13,2.70
2012,01,24,04,14,3.80
2012,01,24,04,15,5.60
2012,01,24,04,16,4.90
2012,01,24,04,17,5.90
2012,01,24,04,18,5.90
2012,01,24,04,19,4.20
2012,01,24,04,20,4.80
2012,01,24,04,21,5.80
2012,01,24,04,22,5.70
2012,01,24,04,23,6.00
2012,01,24,04,24,4.10
2012,01,24,04,25,5.40
2012,01,24,04,26,4.40
2012,01,24,04,27,1.50
2012,01,24,04,28,1.40
2012,01,24,04,29,1.30
2012,01,24,04,30,2.20
2012,01,24,04,31,0.00
2012,01,24,04,32,0.00
2012,01,24,04,33,1.70
2012,01,24,04,34,0.80
2012,01,24,04,35,3.40
2012,01,24,04,36,3.60
2012,01,24,04,37,4.30
2012,01,24,04,38,5.30
2012,01,24,04,39,4.10
2012,01,24,04,40,2.40
2012,01,24,04,41,3.60
2012,01,24,04,42,1.30
2012,01,24,04,43,0.00
2012,01,24,04,44,0.00
2012,01,24,04,45,0.00
2012,01,24,04,46,0.20
2012,01,24,04,47,1.70
2012,01,24,04,48,5.60
2012,01,24,04,49,3.80
2012,01,24,04,50,5.20
2012,01,24,04,51,4.30
2012,01,24,04,52,3.50
2012,01,24,04,53,4.20
2012,01,24,04,54,4.40
2012,01,24,04,55,4.10
2012,01,24,04,56,4.10
2012,01,24,04,57,3.10
2012,01,24,04,58,4.60
2012,01,24,04,59,7.80
2012,01,24,05,00,1.30
2012,01,24,05,01,5.10
2012,01,24,05,02,4.00
2012,01,24,05,03,6.20
2012,01,24,05,04,10.10
2012,01,24,05,05,7.10
2012,01,24,05,06,10.60
2012,01,24,05,07,12.50
2012,01,24,05,08,14.40
2012,01,24,05,09,14.90
2012,01,24,05,10,11.40
2012,01,24,05,11,11.40
2012,01,24,05,12,11.10
2012,01,24,05,13,11.20
2012,01,24,05,14,13.80
2012,01,24,05,15,12.10
2012,01,24,05,16,12.30
2012,01,24,05,17,16.20
2012,01,24,05,18,15.80
2012,01,24,05,19,9.40
2012,01,24,05,20,13.20
2012,01,24,05,21,11.70
2012,01,24,05,22,14.60
2012,01,24,05,23,12.80
2012,01,24,05,24,14.20
2012,01,24,05,25,11.60
2012,01,24,05,26,13.80
2012,01,24,05,27,10.70
2012,01,24,05,28,14.60
2012,01,24,05,29,15.70
2012,01,24,05,30,9.80
2012,01,24,05,31,9.40
2012,01,24,05,32,8.60
2012,01,24,05,33,12.50
2012,01,24,05,34,8.50
2012,01,24,05,35,8.90
2012,01,24,05,36,12.70
2012,01,24,05,37,15.40
2012,01,24,05,38,10.90
2012,01,24,05,39,10.30
2012,01,24,05,40,14.30
2012,01,24,05,41,9.80
2012,01,24,05,42,6.80
2012,01,24,05,43,14.60
2012,01,24,05,44,16.40
2012,01,24,05,45,10.80
2012,01,24,05,46,11.10
2012,01,24,05,47,15.50
2012,01,24,05,48,13.00
2012,01,24,05,49,6.20
2012,01,24,05,50,9.30
2012,01,24,05,51,12.40
2012,01,24,05,52,14.50
2012,01,24,05,53,9.30
2012,01,24,05,54,7.30
2012,01,24,05,55,7.60
2012,01,24,05,56,5.70
2012,01,24,05,57,4.20
2012,01,24,05,58,4.50
2012,01,24,05,59,9.30
2012,01,24,06,00,5.90
2012,01,24,06,01,6.10
2012,01,24,06,02,3.70
2012,01,24,06,03,9.70
2012,01,24,06,04,5.40
2012,01,24,06,05,7.60
2012,01,24,06,06,11.80
2012,01,24,06,07,11.60
2012,01,24,06,08,7.00
2012,01,24,06,09,10.80
2012,01,24,06,10,7.90
2012,01,24,06,11,13.40
2012,01,24,06,12,6.70
2012,01,24,06,13,2.40
2012,01,24,06,14,2.70
2012,01,24,06,15,5.30
2012,01,24,06,16,2.80
2012,01,24,06,17,6.10
2012,01,24,06,18,2.60
2012,01,24,06,19,4.50
2012,01,24,06,20,8.50
2012,01,24,06,21,5.90
2012,01,24,06,22,6.20
2012,01,24,06,23,9.10
2012,01,24,06,24,5.30
2012,01,24,06,25,5.10
2012,01,24,06,26,6.30
2012,01,24,06,27,7.60
2012,01,24,06,28,9.70
2012,01,24,06,29,6.90
2012,01,24,06,30,3.00
2012,01,24,06,31,5.60
2012,01,24,06,32,5.70
2012,01,24,06,33,10.90
2012,01,24,06,34,8.00
2012,01,24,06,35,2.40
2012,01,24,06,36,4.00
2012,01,24,06,37,7.90
2012,01,24,06,38,6.90
2012,01,24,06,39,2.70
2012,01,24,06,40,3.80
2012,01,24,06,41,5.70
2012,01,24,06,42,7.90
2012,01,24,06,43,6.80
2012,01,24,06,44,6.50
2012,01,24,06,45,9.30
2012,01,24,06,46,7.00
2012,01,24,06,47,8.40
2012,01,24,06,48,7.00
2012,01,24,06,49,10.00
2012,01,24,06,50,10.50
2012,01,24,06,51,11.60
2012,01,24,06,52,7.50
2012,01,24,06,53,4.90
2012,01,24,06,54,9.10
2012,01,24,06,55,7.00
2012,01,24,06,56,3.40
2012,01,24,06,57,3.30
2012,01,24,06,58,8.50
2012,01,24,06,59,5.30
2012,01,24,07,00,4.40
2012,01,24,07,01,5.60
2012,01,24,07,02,9.30
2012,01,24,07,03,6.20
2012,01,24,07,04,5.30
2012,01,24,07,05,6.40
2012,01,24,07,06,4.40
2012,01,24,07,07,7.20
2012,01,24,07,08,10.20
2012,01,24,07,09,7.60
2012,01,24,07,10,9.60
2012,01,24,07,11,8.90
2012,01,24,07,12,17.10
2012,01,24,07,13,11.30
2012,01,24,07,14,10.30
2012,01,24,07,15,6.50
2012,01,24,07,16,8.50
2012,01,24,07,17,7.80
2012,01,24,07,18,7.60
2012,01,24,07,19,4.80
2012,01,24,07,20,9.30
2012,01,24,07,21,8.40
2012,01,24,07,22,5.70
2012,01,24,07,23,8.50
2012,01,24,07,24,4.90
2012,01,24,07,25,11.40
2012,01,24,07,26,13.50
2012,01,24,07,27,13.20
2012,01,24,07,28,7.20
2012,01,24,07,29,10.40
2012,01,24,07,30,12.80
2012,01,24,07,31,9.30
2012,01,24,07,32,9.70
2012,01,24,07,33,11.30
2012,01,24,07,34,10.60
2012,01,24,07,35,16.10
2012,01,24,07,36,15.00
2012,01,24,07,37,13.50
2012,01,24,07,38,14.30
2012,01,24,07,39,20.50
2012,01,24,07,40,14.20
2012,01,24,07,41,15.30
2012,01,24,07,42,7.80
2012,01,24,07,43,6.60
2012,01,24,07,44,14.20
2012,01,24,07,45,12.70
2012,01,24,07,46,9.50
2012,01,24,07,47,8.40
2012,01,24,07,48,6.20
2012,01,24,07,49,4.80
2012,01,24,07,50,5.40
2012,01,24,07,51,11.70
2012,01,24,07,52,16.60
2012,01,24,07,53,17.50
2012,01,24,07,54,10.50
2012,01,24,07,55,9.60
2012,01,24,07,56,8.30
2012,01,24,07,57,17.90
2012,01,24,07,58,16.10
2012,01,24,07,59,11.40
2012,01,24,08,00,19.70
2012,01,24,08,01,15.80
2012,01,24,08,02,25.70
2012,01,24,08,03,18.80
2012,01,24,08,04,22.10
2012,01,24,08,05,19.30
2012,01,24,08,06,15.40
2012,01,24,08,07,16.30
2012,01,24,08,08,19.00
2012,01,24,08,09,23.70
2012,01,24,08,10,25.10
2012,01,24,08,11,27.90
2012,01,24,08,12,28.60
2012,01,24,08,13,18.00
2012,01,24,08,14,25.80
2012,01,24,08,15,21.70
2012,01,24,08,16,19.60
2012,01,24,08,17,24.80
2012,01,24,08,18,26.30
2012,01,24,08,19,29.00
2012,01,24,08,20,20.80
2012,01,24,08,21,18.70
2012,01,24,08,22,22.10
2012,01,24,08,23,20.40
2012,01,24,08,24,20.80
2012,01,24,08,25,24.60
2012,01,24,08,26,27.30
2012,01,24,08,27,19.20
2012,01,24,08,28,23.70
2012,01,24,08,29,19.10
2012,01,24,08,30,18.00
2012,01,24,08,31,14.70
2012,01,24,08,32,17.20
2012,01,24,08,33,19.80
2012,01,24,08,34,19.30
2012,01,24,08,35,13.90
2012,01,24,08,36,11.80
2012,01,24,08,37,21.90
2012,01,24,08,38,14.20
2012,01,24,08,39,18.60
2012,01,24,08,40,16.20
2012,01,24,08,41,15.40
2012,01,24,08,42,18.00
2012,01,24,08,43,24.10
2012,01,24,08,44,21.60
2012,01,24,08,45,22.50
2012,01,24,08,46,18.30
2012,01,24,08,47,23.70
2012,01,24,08,48,22.00
2012,01,24,08,49,24.70
2012,01,24,08,50,17.90
2012,01,24,08,51,16.30
2012,01,24,08,52,14.70
2012,01,24,08,53,22.40
2012,01,24,08,54,23.10
2012,01,24,08,55,27.00
2012,01,24,08,56,25.90
2012,01,24,08,57,21.50
2012,01,24,08,58,25.30
2012,01,24,08,59,36.80
2012,01,24,09,00,29.30
2012,01,24,09,01,32.90
2012,01,24,09,02,32.10
2012,01,24,09,03,27.80
2012,01,24,09,04,33.10
2012,01,24,09,05,25.60
2012,01,24,09,06,24.50
2012,01,24,09,07,33.60
2012,01,24,09,08,31.10
2012,01,24,09,09,22.20
2012,01,24,09,10,33.20
2012,01,24,09,11,32.00
2012,01,24,09,12,30.90
2012,01,24,09,13,31.90
2012,01,24,09,14,20.90
2012,01,24,09,15,31.50
2012,01,24,09,16,24.50
2012,01,24,09,17,24.60
2012,01,24,09,18,34.80
2012,01,24,09,19,29.00
2012,01,24,09,20,29.40
2012,01,24,09,21,35.40
2012,01,24,09,22,31.00
2012,01,24,09,23,26.50
2012,01,24,09,24,21.70
2012,01,24,09,25,35.70
2012,01,24,09,26,28.20
2012,01,24,09,27,37.00
2012,01,24,09,28,34.90
2012,01,24,09,29,26.10
2012,01,24,09,30,22.80
2012,01,24,09,31,21.90
2012,01,24,09,32,27.90
2012,01,24,09,33,23.30
2012,01,24,09,34,31.20
2012,01,24,09,35,31.00
2012,01,24,09,36,31.70
2012,01,24,09,37,26.20
2012,01,24,09,38,35.60
2012,01,24,09,39,27.20
2012,01,24,09,40,24.00
2012,01,24,09,41,30.10
2012,01,24,09,42,28.70
2012,01,24,09,43,31.90
2012,01,24,09,44,31.60
2012,01,24,09,45,26.20
2012,01,24,09,46,28.90
2012,01,24,09,47,26.60
2012,01,24,09,48,17.60
2012,01,24,09,49,20.00
2012,01,24,09,50,26.00
2012,01,24,09,51,22.00
2012,01,24,09,52,23.70
2012,01,24,09,53,19.80
2012,01,24,09,54,23.30
2012,01,24,09,55,19.30
2012,01,24,09,56,24.40
2012,01,24,09,57,18.80
2012,01,24,09,58,21.30
2012,01,24,09,59,24.70
2012,01,24,10,00,27.70
2012,01,24,10,01,20.20
2012,01,24,10,02,25.50
2012,01,24,10,03,27.90
2012,01,24,10,04,23.10
2012,01,24,10,05,23.30
2012,01,24,10,06,16.60
2012,01,24,10,07,18.70
2012,01,24,10,08,26.40
2012,01,24,10,09,22.00
2012,01,24,10,10,22.00
2012,01,24,10,11,21.70
2012,01,24,10,12,21.20
2012,01,24,10,13,25.30
2012,01,24,10,14,21.60
2012,01,24,10,15,22.70
2012,01,24,10,16,20.40
2012,01,24,10,17,23.30
2012,01,24,10,18,19.00
2012,01,24,10,19,16.60
2012,01,24,10,20,9.50
2012,01,24,10,21,18.10
2012,01,24,10,22,17.50
2012,01,24,10,23,20.90
2012,01,24,10,24,15.80
2012,01,24,10,25,11.30
2012,01,24,10,26,17.20
2012,01,24,10,27,15.50
2012,01,24,10,28,25.70
2012,01,24,10,29,23.30
2012,01,24,10,30,20.00
2012,01,24,10,31,17.80
2012,01,24,10,32,15.40
2012,01,24,10,33,19.90
2012,01,24,10,34,18.50
2012,01,24,10,35,20.40
2012,01,24,10,36,17.20
2012,01,24,10,37,20.60
2012,01,24,10,38,12.50
2012,01,24,10,39,23.40
2012,01,24,10,40,23.10
2012,01,24,10,41,22.00
2012,01,24,10,42,23.70
2012,01,24,10,43,17.40
2012,01,24,10,44,17.90
2012,01,24,10,45,17.70
2012,01,24,10,46,17.50
2012,01,24,10,47,19.00
2012,01,24,10,48,14.60
2012,01,24,10,49,17.00
2012,01,24,10,50,13.20
2012,01,24,10,51,20.40
2012,01,24,10,52,16.20
2012,01,24,10,53,16.70
2012,01,24,10,54,20.20
2012,01,24,10,55,20.90
2012,01,24,10,56,26.30
2012,01,24,10,57,21.00
2012,01,24,10,58,17.20
2012,01,24,10,59,21.60
2012,01,24,11,00,17.50
2012,01,24,11,01,22.60
2012,01,24,11,02,20.10
2012,01,24,11,03,18.60
2012,01,24,11,04,15.40
2012,01,24,11,05,19.80
2012,01,24,11,06,16.10
2012,01,24,11,07,13.80
2012,01,24,11,08,21.70
2012,01,24,11,09,19.70
2012,01,24,11,10,25.40
2012,01,24,11,11,14.20
2012,01,24,11,12,19.20
2012,01,24,11,13,19.60
2012,01,24,11,14,25.30
2012,01,24,11,15,23.40
2012,01,24,11,16,18.10
2012,01,24,11,17,25.50
2012,01,24,11,18,16.20
2012,01,24,11,19,21.10
2012,01,24,11,20,17.50
2012,01,24,11,21,21.00
2012,01,24,11,22,18.80
2012,01,24,11,23,16.60
2012,01,24,11,24,14.80
2012,01,24,11,25,26.60
2012,01,24,11,26,18.00
2012,01,24,11,27,19.60
2012,01,24,11,28,14.00
2012,01,24,11,29,17.40
2012,01,24,11,30,13.10
2012,01,24,11,31,12.30
2012,01,24,11,32,14.20
2012,01,24,11,33,22.30
2012,01,24,11,34,13.90
2012,01,24,11,35,15.30
2012,01,24,11,36,18.00
2012,01,24,11,37,22.10
2012,01,24,11,38,16.50
2012,01,24,11,39,19.20
2012,01,24,11,40,19.60
2012,01,24,11,41,17.70
2012,01,24,11,42,13.40
2012,01,24,11,43,14.20
2012,01,24,11,44,11.30
2012,01,24,11,45,15.10
2012,01,24,11,46,18.40
2012,01,24,11,47,16.20
2012,01,24,11,48,20.40
2012,01,24,11,49,17.80
2012,01,24,11,50,17.30
2012,01,24,11,51,18.90
2012,01,24,11,52,13.40
2012,01,24,11,53,12.20
2012,01,24,11,54,17.50
2012,01,24,11,55,10.60
2012,01,24,11,56,18.50
2012,01,24,11,57,17.30
2012,01,24,11,58,16.30
2012,01,24,11,59,15.30
2012,01,24,12,00,17.50
2012,01,24,12,01,13.90
2012,01,24,12,02,16.30
2012,01,24,12,03,17.90
2012,01,24,12,04,15.00
2012,01,24,12,05,13.90
2012,01,24,12,06,13.20
2012,01,24,12,07,19.20
2012,01,24,12,08,23.60
2012,01,24,12,09,12.80
2012,01,24,12,10,12.20
2012,01,24,12,11,8.90
2012,01,24,12,12,17.90
2012,01,24,12,13,20.00
2012,01,24,12,14,16.60
2012,01,24,12,15,8.90
2012,01,24,12,16,12.20
2012,01,24,12,17,12.60
2012,01,24,12,18,19.40
2012,01,24,12,19,13.40
2012,01,24,12,20,14.60
2012,01,24,12,21,5.30
2012,01,24,12,22,9.30
2012,01,24,12,23,16.20
2012,01,24,12,24,17.30
2012,01,24,12,25,18.80
2012,01,24,12,26,13.70
2012,01,24,12,27,17.30
2012,01,24,12,28,18.00
2012,01,24,12,29,19.20
2012,01,24,12,30,19.20
2012,01,24,12,31,17.90
2012,01,24,12,32,20.90
2012,01,24,12,33,8.80
2012,01,24,12,34,17.40
2012,01,24,12,35,18.70
2012,01,24,12,36,15.70
2012,01,24,12,37,9.50
2012,01,24,12,38,14.00
2012,01,24,12,39,13.60
2012,01,24,12,40,20.00
2012,01,24,12,41,15.50
2012,01,24,12,42,15.40
2012,01,24,12,43,16.00
2012,01,24,12,44,23.10
2012,01,24,12,45,15.80
2012,01,24,12,46,15.60
2012,01,24,12,47,17.80
2012,01,24,12,48,16.10
2012,01,24,12,49,15.80
2012,01,24,12,50,17.00
2012,01,24,12,51,10.20
2012,01,24,12,52,17.50
2012,01,24,12,53,15.80
2012,01,24,12,54,20.40
2012,01,24,12,55,15.80
2012,01,24,12,56,15.60
2012,01,24,12,57,15.90
2012,01,24,12,58,17.20
2012,01,24,12,59,15.50
2012,01,24,13,00,17.90
2012,01,24,13,01,11.00
2012,01,24,13,02,17.90
2012,01,24,13,03,17.60
2012,01,24,13,04,18.30
2012,01,24,13,05,16.50
2012,01,24,13,06,20.50
2012,01,24,13,07,17.00
2012,01,24,13,08,22.00
2012,01,24,13,09,17.70
2012,01,24,13,10,21.70
2012,01,24,13,11,17.90
2012,01,24,13,12,16.90
2012,01,24,13,13,13.50
2012,01,24,13,14,13.80
2012,01,24,13,15,18.10
2012,01,24,13,16,17.80
2012,01,24,13,17,14.20
2012,01,24,13,18,21.10
2012,01,24,13,19,22.70
2012,01,24,13,20,20.10
2012,01,24,13,21,17.40
2012,01,24,13,22,15.30
2012,01,24,13,23,16.90
2012,01,24,13,24,15.90
2012,01,24,13,25,19.20
2012,01,24,13,26,14.40
2012,01,24,13,27,16.40
2012,01,24,13,28,20.30
2012,01,24,13,29,16.70
2012,01,24,13,30,14.60
2012,01,24,13,31,11.70
2012,01,24,13,32,17.30
2012,01,24,13,33,19.10
2012,01,24,13,34,18.30
2012,01,24,13,35,11.20
2012,01,24,13,36,10.10
2012,01,24,13,37,16.60
2012,01,24,13,38,10.80
2012,01,24,13,39,13.60
2012,01,24,13,40,20.50
2012,01,24,13,41,19.40
2012,01,24,13,42,18.80
2012,01,24,13,43,20.40
2012,01,24,13,44,19.90
2012,01,24,13,45,19.90
2012,01,24,13,46,17.50
2012,01,24,13,47,18.30
2012,01,24,13,48,20.00
2012,01,24,13,49,14.90
2012,01,24,13,50,15.80
2012,01,24,13,51,17.30
2012,01,24,13,52,17.90
2012,01,24,13,53,18.80
2012,01,24,13,54,14.50
2012,01,24,13,55,15.80
2012,01,24,13,56,17.90
2012,01,24,13,57,9.10
2012,01,24,13,58,15.00
2012,01,24,13,59,9.50
2012,01,24,14,00,6.50
2012,01,24,14,01,14.40
2012,01,24,14,02,17.40
2012,01,24,14,03,19.90
2012,01,24,14,04,17.80
2012,01,24,14,05,14.40
2012,01,24,14,06,14.20
2012,01,24,14,07,23.40
2012,01,24,14,08,18.60
2012,01,24,14,09,15.00
2012,01,24,14,10,10.90
2012,01,24,14,11,11.70
2012,01,24,14,12,12.10
2012,01,24,14,13,11.90
2012,01,24,14,14,18.00
2012,01,24,14,15,10.80
2012,01,24,14,16,11.20
2012,01,24,14,17,12.60
2012,01,24,14,18,7.50
2012,01,24,14,19,13.00
2012,01,24,14,20,13.40
2012,01,24,14,21,13.90
2012,01,24,14,22,10.20
2012,01,24,14,23,13.00
2012,01,24,14,24,16.40
2012,01,24,14,25,15.50
2012,01,24,14,26,15.10
2012,01,24,14,27,10.20
2012,01,24,14,28,15.40
2012,01,24,14,29,18.20
2012,01,24,14,30,12.40
2012,01,24,14,31,11.30
2012,01,24,14,32,12.50
2012,01,24,14,33,15.90
2012,01,24,14,34,14.60
2012,01,24,14,35,8.40
2012,01,24,14,36,7.50
2012,01,24,14,37,22.50
2012,01,24,14,38,20.40
2012,01,24,14,39,19.10
2012,01,24,14,40,14.80
2012,01,24,14,41,20.20
2012,01,24,14,42,24.30
2012,01,24,14,43,20.00
2012,01,24,14,44,14.40
2012,01,24,14,45,10.50
2012,01,24,14,46,12.20
2012,01,24,14,47,11.80
2012,01,24,14,48,16.30
2012,01,24,14,49,17.40
2012,01,24,14,50,17.80
2012,01,24,14,51,9.10
2012,01,24,14,52,12.10
2012,01,24,14,53,15.50
2012,01,24,14,54,14.20
2012,01,24,14,55,7.70
2012,01,24,14,56,10.80
2012,01,24,14,57,15.40
2012,01,24,14,58,12.70
2012,01,24,14,59,21.30
2012,01,24,15,00,10.80
2012,01,24,15,01,11.30
2012,01,24,15,02,9.60
2012,01,24,15,03,18.80
2012,01,24,15,04,13.20
2012,01,24,15,05,19.00
2012,01,24,15,06,16.70
2012,01,24,15,07,10.90
2012,01,24,15,08,15.90
2012,01,24,15,09,16.90
2012,01,24,15,10,14.70
2012,01,24,15,11,6.80
2012,01,24,15,12,14.20
2012,01,24,15,13,11.70
2012,01,24,15,14,15.10
2012,01,24,15,15,12.60
2012,01,24,15,16,13.00
2012,01,24,15,17,10.90
2012,01,24,15,18,11.00
2012,01,24,15,19,11.90
2012,01,24,15,20,16.90
2012,01,24,15,21,20.50
2012,01,24,15,22,20.90
2012,01,24,15,23,18.60
2012,01,24,15,24,17.30
2012,01,24,15,25,20.70
2012,01,24,15,26,21.10
2012,01,24,15,27,17.90
2012,01,24,15,28,22.50
2012,01,24,15,29,23.30
2012,01,24,15,30,26.60
2012,01,24,15,31,20.80
2012,01,24,15,32,22.40
2012,01,24,15,33,23.70
2012,01,24,15,34,22.90
2012,01,24,15,35,18.90
2012,01,24,15,36,11.40
2012,01,24,15,37,4.60
2012,01,24,15,38,12.10
2012,01,24,15,39,7.20
2012,01,24,15,40,13.90
2012,01,24,15,41,9.90
2012,01,24,15,42,9.50
2012,01,24,15,43,13.90
2012,01,24,15,44,15.00
2012,01,24,15,45,16.10
2012,01,24,15,46,14.30
2012,01,24,15,47,18.70
2012,01,24,15,48,15.70
2012,01,24,15,49,12.20
2012,01,24,15,50,17.10
2012,01,24,15,51,8.30
2012,01,24,15,52,12.30
2012,01,24,15,53,12.30
2012,01,24,15,54,13.00
2012,01,24,15,55,16.30
2012,01,24,15,56,16.30
2012,01,24,15,57,14.30
2012,01,24,15,58,7.40
2012,01,24,15,59,7.90
2012,01,24,16,00,8.90
2012,01,24,16,01,12.30
2012,01,24,16,02,7.50
2012,01,24,16,03,6.80
2012,01,24,16,04,7.60
2012,01,24,16,05,12.60
2012,01,24,16,06,15.20
2012,01,24,16,07,8.50
2012,01,24,16,08,10.70
2012,01,24,16,09,17.90
2012,01,24,16,10,12.60
2012,01,24,16,11,10.70
2012,01,24,16,12,15.10
2012,01,24,16,13,11.50
2012,01,24,16,14,8.90
2012,01,24,16,15,10.90
2012,01,24,16,16,8.20
2012,01,24,16,17,7.00
2012,01,24,16,18,10.10
2012,01,24,16,19,7.80
2012,01,24,16,20,10.00
2012,01,24,16,21,12.50
2012,01,24,16,22,12.20
2012,01,24,16,23,10.00
2012,01,24,16,24,9.70
2012,01,24,16,25,10.20
2012,01,24,16,26,11.80
2012,01,24,16,27,12.70
2012,01,24,16,28,11.00
2012,01,24,16,29,9.90
2012,01,24,16,30,11.60
2012,01,24,16,31,8.40
2012,01,24,16,32,10.00
2012,01,24,16,33,8.80
2012,01,24,16,34,7.90
2012,01,24,16,35,10.90
2012,01,24,16,36,11.90
2012,01,24,16,37,6.40
2012,01,24,16,38,7.20
2012,01,24,16,39,8.20
2012,01,24,16,40,10.20
2012,01,24,16,41,6.60
2012,01,24,16,42,12.00
2012,01,24,16,43,11.20
2012,01,24,16,44,14.70
2012,01,24,16,45,11.00
2012,01,24,16,46,10.90
2012,01,24,16,47,10.80
2012,01,24,16,48,6.70
2012,01,24,16,49,6.20
2012,01,24,16,50,8.50
2012,01,24,16,51,13.60
2012,01,24,16,52,10.20
2012,01,24,16,53,6.50
2012,01,24,16,54,5.60
2012,01,24,16,55,6.50
2012,01,24,16,56,7.00
2012,01,24,16,57,8.40
2012,01,24,16,58,9.10
2012,01,24,16,59,5.60
2012,01,24,17,00,3.20
2012,01,24,17,01,6.70
2012,01,24,17,02,5.50
2012,01,24,17,03,9.30
2012,01,24,17,04,13.30
2012,01,24,17,05,8.20
2012,01,24,17,06,7.60
2012,01,24,17,07,6.00
2012,01,24,17,08,7.30
2012,01,24,17,09,6.40
2012,01,24,17,10,8.20
2012,01,24,17,11,7.10
2012,01,24,17,12,11.70
2012,01,24,17,13,8.10
2012,01,24,17,14,7.00
2012,01,24,17,15,5.00
2012,01,24,17,16,5.60
2012,01,24,17,17,7.60
2012,01,24,17,18,12.00
2012,01,24,17,19,16.80
2012,01,24,17,20,17.00
2012,01,24,17,21,17.40
2012,01,24,17,22,17.10
2012,01,24,17,23,13.20
2012,01,24,17,24,11.00
2012,01,24,17,25,9.10
2012,01,24,17,26,12.10
2012,01,24,17,27,14.40
2012,01,24,17,28,12.80
2012,01,24,17,29,12.20
2012,01,24,17,30,12.20
2012,01,24,17,31,10.50
2012,01,24,17,32,10.60
2012,01,24,17,33,9.90
2012,01,24,17,34,4.80
2012,01,24,17,35,4.60
2012,01,24,17,36,9.30
2012,01,24,17,37,9.70
2012,01,24,17,38,6.30
2012,01,24,17,39,11.70
2012,01,24,17,40,9.70